Starlink 3845

operational
NORAD ID: 52541 Int'l Des: 2022-051 Owner: SPXS Country: US Constellation: starlink
LEOCIRCULAR

关于 Starlink 3845

正在加载描述...

实时位置

正在加载3D地球...

即将过境

高度历史

Altitude vs Time

uPlot chart will show altitude changes over time

两行轨道根数

1 52541U 22051J 25302.89468118 .00000269 00000-0 34967-4 0 9994
2 52541 53.2176 1.2819 0001369 91.5780 268.5369 15.08847315191623
Epoch: Oct 29, 2025 • Age: 10 hours

当前状态

高度 544.8 km
速度 7.59 km/s
星下点 -17.42°S, 35.42°E
发射日期 May 13, 2022
运行时间 3.4 years
类型 internet

技术详情

分类 Payload
质量 297.00 kg
干质量 275.00 kg
总质量 297.00 kg
长度 0.20 m
直径 2.80 m
跨度 9.00 m
形状 Box + pan
制造商 SPXS
平台类型 Starlink
阶段状态 In Orbit
所有者/国家 SPXS/US

大型星座

Loading constellations...